| time (UTC) | temp F | wind direction | speed knots | gust knots | rain 1hr in | rain 24hr in | rain mn in | humidity % | barometer mb |
| 20260504214540 | 75 | 186 | 4.3 | 7.8 | 0.00 | 0.00 | 0.00 | 34 | 1002.6 |
| 20260504214046 | 75 | 196 | 1.7 | 6.1 | 0.00 | 0.00 | 0.00 | 37 | 1002.7 |
| 20260504213522 | 75 | 238 | 2.6 | 6.1 | 0.00 | 0.00 | 0.00 | 34 | 1002.7 |
| 20260504213041 | 75 | 190 | 2.6 | 6.1 | 0.00 | 0.00 | 0.00 | 34 | 1002.7 |
| 20260504212534 | 75 | 200 | 4.3 | 7.0 | 0.00 | 0.00 | 0.00 | 35 | 1002.7 |
| 20260504212042 | 75 | 193 | 3.5 | 7.0 | 0.00 | 0.00 | 0.00 | 33 | 1002.8 |
| 20260504211534 | 75 | 191 | 3.5 | 7.0 | 0.00 | 0.00 | 0.00 | 35 | 1002.8 |
| 20260504211043 | 75 | 188 | 2.6 | 11.3 | 0.00 | 0.00 | 0.00 | 36 | 1002.8 |
| 20260504210546 | 75 | 180 | 6.1 | 11.3 | 0.00 | 0.00 | 0.00 | 33 | 1002.9 |
| 20260504210021 | 75 | 195 | 5.2 | 8.7 | 0.00 | 0.00 | 0.00 | 34 | 1003.0 |
| 20260504205548 | 75 | 253 | 3.5 | 8.7 | 0.00 | 0.00 | 0.00 | 37 | 1002.8 |
| 20260504205026 | 74 | 226 | 5.2 | 7.8 | 0.00 | 0.00 | 0.00 | 35 | 1002.8 |
| 20260504204522 | 74 | 193 | 4.3 | 11.3 | 0.00 | 0.00 | 0.00 | 35 | 1003.0 |
| 20260504204055 | 74 | 193 | 7.0 | 11.3 | 0.00 | 0.00 | 0.00 | 35 | 1003.0 |
| 20260504203601 | 74 | 192 | 4.3 | 8.7 | 0.00 | 0.00 | 0.00 | 36 | 1003.0 |
| 20260504203018 | 75 | 253 | 2.6 | 8.7 | 0.00 | 0.00 | 0.00 | 37 | 1003.1 |
| 20260504202547 | 75 | 247 | 3.5 | 8.7 | 0.00 | 0.00 | 0.00 | 37 | 1003.3 |
| 20260504202035 | 75 | 179 | 4.3 | 7.8 | 0.00 | 0.00 | 0.00 | 37 | 1003.3 |
| 20260504201549 | 74 | 238 | 2.6 | 7.8 | 0.00 | 0.00 | 0.00 | 38 | 1003.3 |
| 20260504201033 | 74 | 192 | 3.5 | 7.8 | 0.00 | 0.00 | 0.00 | 39 | 1003.4 |
| 20260504200602 | 74 | 214 | 2.6 | 9.6 | 0.00 | 0.00 | 0.00 | 38 | 1003.5 |
| 20260504200027 | 74 | 303 | 2.6 | 11.3 | 0.00 | 0.00 | 0.00 | 39 | 1003.5 |
| 20260504195518 | 74 | 242 | 4.3 | 11.3 | 0.00 | 0.00 | 0.00 | 37 | 1003.7 |
| 20260504195026 | 73 | 205 | 4.3 | 10.4 | 0.00 | 0.00 | 0.00 | 38 | 1003.7 |
| 20260504194534 | 73 | 224 | 3.5 | 6.1 | 0.00 | 0.00 | 0.00 | 40 | 1003.8 |
| 20260504194029 | 74 | 204 | 2.6 | 7.8 | 0.00 | 0.00 | 0.00 | 40 | 1003.8 |
| 20260504193538 | 74 | 192 | 3.5 | 9.6 | 0.00 | 0.00 | 0.00 | 41 | 1003.8 |
| 20260504193027 | 73 | 206 | 5.2 | 9.6 | 0.00 | 0.00 | 0.00 | 41 | 1003.9 |
| 20260504192539 | 73 | 232 | 2.6 | 7.0 | 0.00 | 0.00 | 0.00 | 41 | 1003.9 |
| 20260504192024 | 73 | 254 | 4.3 | 7.8 | 0.00 | 0.00 | 0.00 | 39 | 1003.9 |
| 20260504191524 | 73 | 240 | 5.2 | 13.0 | 0.00 | 0.00 | 0.00 | 40 | 1003.9 |
| 20260504191033 | 74 | 196 | 5.2 | 10.4 | 0.00 | 0.00 | 0.00 | 41 | 1003.8 |
| 20260504190522 | 74 | 211 | 3.5 | 7.8 | 0.00 | 0.00 | 0.00 | 43 | 1004.0 |
| 20260504190031 | 73 | 233 | 4.3 | 7.8 | 0.00 | 0.00 | 0.00 | 44 | 1004.2 |
| 20260504185526 | 73 | 187 | 5.2 | 13.0 | 0.00 | 0.00 | 0.00 | 43 | 1004.1 |
| 20260504185025 | 73 | 205 | 4.3 | 13.0 | 0.00 | 0.00 | 0.00 | 42 | 1004.2 |
| 20260504184517 | 73 | 258 | 5.2 | 13.0 | 0.00 | 0.00 | 0.00 | 43 | 1004.2 |
| 20260504184028 | 73 | 195 | 4.3 | 9.6 | 0.00 | 0.00 | 0.00 | 44 | 1004.3 |
| 20260504183529 | 73 | 184 | 4.3 | 9.6 | 0.00 | 0.00 | 0.00 | 44 | 1004.5 |
| 20260504183036 | 72 | 198 | 4.3 | 11.3 | 0.00 | 0.00 | 0.00 | 45 | 1004.5 |
| 20260504182522 | 72 | 181 | 5.2 | 11.3 | 0.00 | 0.00 | 0.00 | 45 | 1004.4 |
| 20260504182036 | 72 | 197 | 4.3 | 7.8 | 0.00 | 0.00 | 0.00 | 44 | 1004.6 |
| 20260504181526 | 72 | 188 | 3.5 | 7.0 | 0.00 | 0.00 | 0.00 | 46 | 1004.6 |
| 20260504181046 | 72 | 272 | 3.5 | 8.7 | 0.00 | 0.00 | 0.00 | 47 | 1004.6 |
| 20260504180522 | 72 | 242 | 3.5 | 9.6 | 0.00 | 0.00 | 0.00 | 46 | 1004.6 |
| 20260504180022 | 72 | 238 | 5.2 | 9.6 | 0.00 | 0.00 | 0.00 | 45 | 1004.7 |
| 20260504175551 | 72 | 212 | 3.5 | 10.4 | 0.00 | 0.00 | 0.00 | 47 | 1004.8 |
| 20260504175037 | 71 | 211 | 6.1 | 10.4 | 0.00 | 0.00 | 0.00 | 47 | 1004.8 |
| 20260504174526 | 71 | 185 | 4.3 | 7.8 | 0.00 | 0.00 | 0.00 | 47 | 1004.9 |
| 20260504174036 | 71 | 252 | 5.2 | 10.4 | 0.00 | 0.00 | 0.00 | 46 | 1004.9 |
| 20260504173531 | 71 | 231 | 5.2 | 12.2 | 0.00 | 0.00 | 0.00 | 48 | 1004.8 |
| 20260504173037 | 71 | 220 | 5.2 | 12.2 | 0.00 | 0.00 | 0.00 | 46 | 1004.9 |
| 20260504172529 | 71 | 254 | 4.3 | 12.2 | 0.00 | 0.00 | 0.00 | 48 | 1004.9 |
| 20260504172104 | 71 | 182 | 7.0 | 12.2 | 0.00 | 0.00 | 0.00 | 46 | 1004.9 |
| 20260504171612 | 70 | 255 | 4.3 | 10.4 | 0.00 | 0.00 | 0.00 | 46 | 1005.1 |
| 20260504171028 | 70 | 211 | 5.2 | 14.8 | 0.00 | 0.00 | 0.00 | 48 | 1005.1 |
| 20260504170549 | 70 | 210 | 7.8 | 14.8 | 0.00 | 0.00 | 0.00 | 46 | 1005.1 |
| 20260504151024 | 65 | 196 | 5.2 | 9.6 | 0.00 | 0.00 | 0.00 | 51 | 1006.1 |
| 20260504150553 | 65 | 203 | 4.3 | 9.6 | 0.00 | 0.00 | 0.00 | 51 | 1006.2 |
| 20260504140522 | 63 | 197 | 4.3 | 12.2 | 0.00 | 0.00 | 0.00 | 50 | 1006.1 |
| 20260504130525 | 60 | 186 | 3.5 | 8.7 | 0.00 | 0.00 | 0.00 | 53 | 1006.7 |
| 20260504110549 | 54 | 194 | 3.5 | 7.0 | 0.00 | 0.00 | 0.00 | 55 | 1006.9 |
| 20260504100528 | 53 | 200 | 3.5 | 6.1 | 0.00 | 0.00 | 0.00 | 55 | 1006.7 |
| 20260504081550 | 52 | 199 | 3.5 | 6.1 | 0.00 | 0.00 | 0.00 | 56 | 1007.4 |
| 20260504081047 | 53 | 205 | 3.5 | 6.1 | 0.00 | 0.00 | 0.00 | 56 | 1007.4 |
| 20260504080522 | 53 | 193 | 4.3 | 8.7 | 0.00 | 0.00 | 0.00 | 56 | 1007.5 |
| 20260504050537 | 54 | 196 | 1.7 | 5.2 | 0.00 | 0.00 | 0.00 | 55 | 1008.4 |
| 20260504045552 | 54 | 194 | 2.6 | 4.3 | 0.00 | 0.00 | 0.00 | 54 | 1008.6 |
| 20260504045037 | 55 | 185 | 2.6 | 6.1 | 0.00 | 0.00 | 0.00 | 54 | 1008.5 |
| 20260504044549 | 55 | 198 | 3.5 | 6.1 | 0.00 | 0.00 | 0.00 | 54 | 1008.6 |
| 20260504044046 | 55 | 196 | 2.6 | 5.2 | 0.00 | 0.00 | 0.00 | 53 | 1008.6 |
| 20260504043556 | 55 | 196 | 2.6 | 7.0 | 0.00 | 0.00 | 0.00 | 54 | 1008.6 |
| 20260504043046 | 55 | 161 | 3.5 | 7.0 | 0.00 | 0.00 | 0.00 | 53 | 1008.6 |
| 20260504042528 | 55 | 196 | 4.3 | 7.8 | 0.00 | 0.00 | 0.00 | 53 | 1008.6 |
| 20260504042045 | 55 | 195 | 2.6 | 6.1 | 0.00 | 0.00 | 0.00 | 53 | 1008.5 |
| 20260504041526 | 56 | 202 | 3.5 | 7.0 | 0.00 | 0.00 | 0.00 | 53 | 1008.6 |
| 20260504041047 | 56 | 199 | 3.5 | 7.0 | 0.00 | 0.00 | 0.00 | 53 | 1008.6 |
| 20260504040544 | 56 | 205 | 2.6 | 6.1 | 0.00 | 0.00 | 0.00 | 53 | 1008.5 |
| 20260504040030 | 56 | 185 | 2.6 | 4.3 | 0.00 | 0.00 | 0.00 | 53 | 1008.5 |
| 20260504035541 | 56 | 194 | 2.6 | 4.3 | 0.00 | 0.00 | 0.00 | 53 | 1008.5 |
| 20260504035109 | 56 | 190 | 2.6 | 6.1 | 0.00 | 0.00 | 0.00 | 53 | 1008.4 |
| 20260504034537 | 56 | 205 | 2.6 | 6.1 | 0.00 | 0.00 | 0.00 | 53 | 1008.5 |
| 20260504034044 | 56 | 187 | 1.7 | 4.3 | 0.00 | 0.00 | 0.00 | 53 | 1008.4 |
| 20260504033611 | 56 | 198 | 1.7 | 5.2 | 0.00 | 0.00 | 0.00 | 53 | 1008.4 |
| 20260504033025 | 56 | 202 | 2.6 | 7.0 | 0.00 | 0.00 | 0.00 | 53 | 1008.5 |
| 20260504032615 | 56 | 223 | 2.6 | 7.0 | 0.00 | 0.00 | 0.00 | 52 | 1008.5 |
| 20260504032030 | 56 | 202 | 2.6 | 5.2 | 0.00 | 0.00 | 0.00 | 53 | 1008.5 |
| 20260504031541 | 56 | 208 | 2.6 | 5.2 | 0.00 | 0.00 | 0.00 | 53 | 1008.5 |
| 20260504031036 | 56 | 221 | 1.7 | 4.3 | 0.00 | 0.00 | 0.00 | 54 | 1008.5 |
| 20260504030541 | 56 | 222 | 1.7 | 5.2 | 0.00 | 0.00 | 0.00 | 53 | 1008.6 |
| 20260504030039 | 56 | 205 | 2.6 | 5.2 | 0.00 | 0.00 | 0.00 | 53 | 1008.5 |
| 20260504025519 | 56 | 205 | 2.6 | 7.0 | 0.00 | 0.00 | 0.00 | 54 | 1008.6 |
| 20260504025034 | 56 | 202 | 3.5 | 7.0 | 0.00 | 0.00 | 0.00 | 53 | 1008.6 |
| 20260504024518 | 56 | 198 | 1.7 | 6.1 | 0.00 | 0.00 | 0.00 | 54 | 1008.7 |
| 20260504024053 | 55 | 234 | 2.6 | 6.1 | 0.00 | 0.00 | 0.00 | 55 | 1008.7 |
| 20260504023530 | 55 | 218 | 2.6 | 5.2 | 0.00 | 0.00 | 0.00 | 54 | 1008.7 |
| 20260504023110 | 55 | 241 | 2.6 | 5.2 | 0.00 | 0.00 | 0.00 | 55 | 1008.8 |
| 20260504022538 | 55 | 221 | 1.7 | 3.5 | 0.00 | 0.00 | 0.00 | 55 | 1008.9 |
| 20260504022022 | 54 | 256 | 1.7 | 3.5 | 0.00 | 0.00 | 0.00 | 57 | 1009.0 |
| 20260504021537 | 54 | 200 | 0.0 | 1.7 | 0.00 | 0.00 | 0.00 | 56 | 1008.9 |
| 20260504021025 | 54 | 200 | 0.0 | 1.7 | 0.00 | 0.00 | 0.00 | 57 | 1008.9 |
| 20260504020545 | 54 | 200 | 0.9 | 2.6 | 0.00 | 0.00 | 0.00 | 58 | 1008.9 |
| 20260504020059 | 54 | 200 | 1.7 | 2.6 | 0.00 | 0.00 | 0.00 | 57 | 1008.9 |
| 20260504015528 | 54 | 200 | 0.0 | 2.6 | 0.00 | 0.00 | 0.00 | 57 | 1008.9 |
| 20260504015034 | 54 | 200 | 0.9 | 4.3 | 0.00 | 0.00 | 0.00 | 57 | 1008.8 |
| 20260504014525 | 54 | 200 | 2.6 | 4.3 | 0.00 | 0.00 | 0.00 | 56 | 1008.8 |
| 20260504014034 | 54 | 246 | 0.0 | 2.6 | 0.00 | 0.00 | 0.00 | 57 | 1009.0 |
| 20260504013547 | 54 | 188 | 0.0 | 6.1 | 0.00 | 0.00 | 0.00 | 57 | 1009.1 |
| 20260504013052 | 55 | 262 | 1.7 | 6.1 | 0.00 | 0.00 | 0.00 | 57 | 1009.1 |
| 20260504012526 | 55 | 220 | 0.9 | 7.8 | 0.00 | 0.00 | 0.00 | 57 | 1009.3 |
| 20260504012020 | 54 | 241 | 3.5 | 8.7 | 0.00 | 0.00 | 0.00 | 57 | 1009.4 |
| 20260504011534 | 54 | 245 | 3.5 | 9.6 | 0.00 | 0.00 | 0.00 | 57 | 1009.3 |
| 20260504011029 | 54 | 244 | 3.5 | 9.6 | 0.00 | 0.00 | 0.00 | 57 | 1009.3 |
| 20260504010519 | 54 | 221 | 2.6 | 8.7 | 0.00 | 0.00 | 0.00 | 58 | 1009.2 |
| 20260504010038 | 54 | 267 | 1.7 | 6.1 | 0.00 | 0.00 | 0.00 | 59 | 1009.1 |
| 20260504005526 | 54 | 267 | 3.5 | 7.0 | 0.00 | 0.00 | 0.00 | 59 | 1009.3 |
| 20260504005048 | 54 | 218 | 2.6 | 12.2 | 0.00 | 0.00 | 0.00 | 59 | 1009.5 |
| 20260504004609 | 54 | 254 | 6.1 | 12.2 | 0.00 | 0.00 | 0.00 | 58 | 1009.6 |
| 20260504004044 | 55 | 259 | 5.2 | 13.0 | 0.00 | 0.00 | 0.00 | 58 | 1009.7 |
| 20260504003533 | 55 | 311 | 5.2 | 13.0 | 0.00 | 0.00 | 0.00 | 57 | 1009.6 |
| 20260504003027 | 55 | 262 | 2.6 | 9.6 | 0.00 | 0.00 | 0.00 | 57 | 1009.5 |
| 20260504002536 | 55 | 332 | 3.5 | 7.8 | 0.00 | 0.00 | 0.00 | 56 | 1009.3 |
| 20260504002026 | 55 | 220 | 3.5 | 12.2 | 0.00 | 0.00 | 0.00 | 55 | 1009.4 |
| 20260504001540 | 55 | 227 | 4.3 | 12.2 | 0.00 | 0.00 | 0.00 | 54 | 1009.3 |
| 20260504001031 | 55 | 266 | 2.6 | 8.7 | 0.00 | 0.00 | 0.00 | 54 | 1009.1 |
| 20260504000538 | 55 | 248 | 3.5 | 8.7 | 0.00 | 0.00 | 0.00 | 53 | 1009.0 |
| 20260504000046 | 55 | 254 | 4.3 | 8.7 | 0.00 | 0.00 | 0.00 | 53 | 1009.0 |
| 20260503235523 | 56 | 271 | 4.3 | 21.7 | 0.00 | 0.00 | 0.00 | 52 | 1009.1 |
| 20260503235048 | 56 | 218 | 7.8 | 21.7 | 0.00 | 0.00 | 0.00 | 52 | 1009.1 |
| 20260503234541 | 56 | 236 | 13.0 | 22.6 | 0.00 | 0.00 | 0.00 | 51 | 1009.1 |
| 20260503234049 | 56 | 275 | 6.1 | 19.1 | 0.00 | 0.00 | 0.00 | 51 | 1009.2 |
| 20260503233523 | 57 | 258 | 7.0 | 13.9 | 0.00 | 0.00 | 0.00 | 50 | 1009.0 |
| 20260503233048 | 57 | 263 | 7.0 | 13.9 | 0.00 | 0.00 | 0.00 | 50 | 1009.0 |
| 20260503232537 | 57 | 237 | 5.2 | 13.9 | 0.00 | 0.00 | 0.00 | 50 | 1008.9 |
| 20260503232042 | 57 | 233 | 5.2 | 12.2 | 0.00 | 0.00 | 0.00 | 48 | 1008.8 |
| 20260503231524 | 57 | 235 | 6.1 | 12.2 | 0.00 | 0.00 | 0.00 | 47 | 1008.7 |
| 20260503231108 | 57 | 221 | 4.3 | 13.9 | 0.00 | 0.00 | 0.00 | 47 | 1008.7 |
| 20260503230537 | 57 | 244 | 4.3 | 10.4 | 0.00 | 0.00 | 0.00 | 46 | 1008.7 |
| 20260503230032 | 58 | 242 | 3.5 | 14.8 | 0.00 | 0.00 | 0.00 | 46 | 1008.7 |
| 20260503225540 | 58 | 261 | 6.1 | 14.8 | 0.00 | 0.01 | 0.00 | 44 | 1008.5 |
| 20260503225041 | 57 | 254 | 3.5 | 10.4 | 0.00 | 0.01 | 0.00 | 45 | 1008.5 |
| 20260503224545 | 57 | 209 | 4.3 | 9.6 | 0.00 | 0.01 | 0.00 | 46 | 1008.4 |
| 20260503224047 | 57 | 182 | 1.7 | 8.7 | 0.00 | 0.01 | 0.00 | 47 | 1008.5 |
| 20260503223553 | 57 | 255 | 3.5 | 8.7 | 0.00 | 0.01 | 0.00 | 46 | 1008.4 |
| 20260503223025 | 57 | 271 | 1.7 | 9.6 | 0.00 | 0.01 | 0.00 | 47 | 1008.6 |
| 20260503222554 | 57 | 262 | 3.5 | 10.4 | 0.00 | 0.01 | 0.00 | 47 | 1008.7 |
| 20260503222024 | 57 | 275 | 5.2 | 12.2 | 0.00 | 0.01 | 0.00 | 45 | 1008.7 |
| 20260503221555 | 58 | 253 | 5.2 | 12.2 | 0.00 | 0.01 | 0.00 | 46 | 1008.7 |
| 20260503221024 | 58 | 293 | 4.3 | 10.4 | 0.00 | 0.01 | 0.00 | 46 | 1008.8 |
| 20260503220539 | 58 | 262 | 5.2 | 11.3 | 0.00 | 0.01 | 0.00 | 44 | 1008.8 |
| 20260503220028 | 58 | 277 | 6.1 | 12.2 | 0.00 | 0.01 | 0.00 | 44 | 1008.8 |
| 20260503215534 | 58 | 254 | 6.1 | 13.9 | 0.00 | 0.01 | 0.00 | 44 | 1008.8 |
| 20260503215028 | 58 | 259 | 4.3 | 12.2 | 0.00 | 0.01 | 0.00 | 44 | 1008.8 |